Orbital Elements at Epoch 2459200.5 (2020-Dec-17.0) TDB
Reference: JPL 17 (heliocentric ecliptic J2000)
Element | Value | Uncertainty (1-sigma) | Units |
e | .009122389179978858 | 5.0116e-08 | |
a | 2.643536838737193 | 2.4092e-08 | au |
q | 2.619421466882621 | 1.3783e-07 | au |
i | 3.713729151310003 | 4.8111e-06 | deg |
node | 117.5241552920582 | 8.5979e-05 | deg |
peri | 106.3751599685072 | 0.00030125 | deg |
M | 271.3267221554551 | 0.00029108 | deg |
tp | 2459587.193381589450 (2022-Jan-07.69338159) | 0.0012705 | TDB |
period | 1569.916222294765 4.30 | 2.1461e-05 5.876e-08 | d yr |
n | .229311599490184 | 3.1347e-09 | deg/d |
Q | 2.667652210591764 | 2.4312e-08 | au |
|
| | Orbit Determination Parameters
Additional Information
|